Date,TemperatureHighF,TemperatureAvgF,TemperatureLowF,DewpointHighF,DewpointAvgF,DewpointLowF,HumidityHigh,HumidityAvg,HumidityLow,PressureMaxIn,PressureMinIn,WindSpeedMaxMPH,WindSpeedAvgMPH,GustSpeedMaxMPH,PrecipitationSumIn
2013-1-1,13.0,9.6,7.0,-99.9,-99.9,-99.9,0,0,100,0.00,40.00,0,-999,0,0.01
2013-1-2,15.0,10.8,8.0,-99.9,-99.9,-99.9,0,0,100,0.00,40.00,0,-999,0,0.00
2013-1-3,27.0,13.7,1.0,-99.9,-99.9,-99.9,0,0,100,0.00,40.00,0,-999,0,0.00
2013-1-4,35.0,21.4,13.0,-99.9,-99.9,-99.9,0,0,100,0.00,40.00,0,-999,0,0.01
2013-1-5,27.0,25.0,21.0,-99.9,-99.9,-99.9,0,0,100,0.00,40.00,0,-999,0,0.01
2013-1-6,40.0,31.4,19.0,-99.9,-99.9,-99.9,0,0,100,0.00,40.00,0,-999,0,0.01
2013-1-7,36.0,32.5,29.0,-99.9,-99.9,-99.9,0,0,100,0.00,40.00,0,-999,0,0.00
2013-1-8,28.0,27.0,24.0,-99.9,-99.9,-99.9,0,0,100,0.00,40.00,0,-999,0,0.00
2013-1-9,42.0,33.4,27.0,-99.9,-99.9,-99.9,0,0,100,0.00,40.00,0,-999,0,0.00
2013-1-10,41.0,34.8,28.0,-99.9,-99.9,-99.9,0,0,100,0.00,40.00,0,-999,0,0.00
2013-1-11,32.0,18.1,5.0,-99.9,-99.9,-99.9,0,0,100,0.00,40.00,0,-999,0,0.00
2013-1-12,7.0,3.1,-5.0,-99.9,-99.9,-99.9,0,0,100,0.00,40.00,0,-999,0,0.01
2013-1-13,8.0,-0.9,-9.0,-99.9,-99.9,-99.9,0,0,100,0.00,40.00,0,-999,0,0.00
2013-1-14,6.0,-0.9,-8.0,-99.9,-99.9,-99.9,0,0,100,0.00,40.00,0,-999,0,0.00
2013-1-15,25.0,14.3,-2.0,-99.9,-99.9,-99.9,0,0,100,0.00,40.00,0,-999,0,0.01
2013-1-16,34.0,27.2,19.0,-99.9,-99.9,-99.9,0,0,100,0.00,40.00,0,-999,0,0.01
2013-1-17,37.0,26.2,15.0,-99.9,-99.9,-99.9,0,0,100,0.00,40.00,0,-999,0,0.01
2013-1-18,35.0,30.6,28.0,-99.9,-99.9,-99.9,0,0,100,0.00,40.00,0,-999,0,0.01
2013-1-19,36.0,29.9,26.0,-99.9,-99.9,-99.9,0,0,100,0.00,40.00,0,-999,0,0.01
2013-1-20,34.0,29.7,26.0,-99.9,-99.9,-99.9,0,0,100,0.00,40.00,0,-999,0,0.00
2013-1-21,31.0,27.7,25.0,-99.9,-99.9,-99.9,0,0,100,0.00,40.00,0,-999,0,0.00
2013-1-22,39.0,34.5,29.0,-99.9,-99.9,-99.9,0,0,100,0.00,40.00,0,-999,0,0.00
2013-1-23,44.0,37.9,32.0,-99.9,-99.9,-99.9,0,0,100,0.00,40.00,0,-999,0,0.01
2013-1-24,40.0,37.1,35.0,-99.9,-99.9,-99.9,0,0,100,0.00,40.00,0,-999,0,0.01
2013-1-25,39.0,35.8,33.0,-99.9,-99.9,-99.9,0,0,100,0.00,40.00,0,-999,0,0.00
2013-1-26,43.0,36.4,32.0,-99.9,-99.9,-99.9,0,0,100,0.00,40.00,0,-999,0,0.00
2013-1-27,37.0,33.5,28.0,-99.9,-99.9,-99.9,0,0,100,0.00,40.00,0,-999,0,0.01
2013-1-28,38.0,29.1,20.0,-99.9,-99.9,-99.9,0,0,100,0.00,40.00,0,-999,0,0.01
2013-1-29,18.0,12.4,6.0,-99.9,-99.9,-99.9,0,0,100,0.00,40.00,0,-999,0,0.01
2013-1-30,19.0,11.6,5.0,-99.9,-99.9,-99.9,0,0,100,0.00,40.00,0,-999,0,0.00
2013-1-31,25.0,23.7,21.0,-99.9,-99.9,-99.9,0,0,100,0.00,40.00,0,-999,0,0.01
2013-2-1,28.0,24.7,23.0,-99.9,-99.9,-99.9,0,0,100,0.00,40.00,0,-999,0,0.02
2013-2-2,30.0,26.2,23.0,-99.9,-99.9,-99.9,0,0,100,0.00,40.00,0,-999,0,0.01
2013-2-3,38.0,31.9,27.0,-99.9,-99.9,-99.9,0,0,100,0.00,40.00,0,-999,0,0.01
2013-2-4,33.0,28.9,25.0,-99.9,-99.9,-99.9,0,0,100,0.00,40.00,0,-999,0,0.01
2013-2-5,39.0,32.5,28.0,-99.9,-99.9,-99.9,0,0,100,0.00,40.00,0,-999,0,0.00
2013-2-6,38.0,34.2,24.0,-99.9,-99.9,-99.9,0,0,100,0.00,40.00,0,-999,0,0.00
2013-2-7,33.0,25.4,20.0,-99.9,-99.9,-99.9,0,0,100,0.00,40.00,0,-999,0,0.00
2013-2-8,38.0,25.6,17.0,-99.9,-99.9,-99.9,0,0,100,0.00,40.00,0,-999,0,0.01
2013-2-9,27.0,21.4,15.0,-99.9,-99.9,-99.9,0,0,100,0.00,40.00,0,-999,0,0.00
2013-2-10,24.0,17.1,6.0,-99.9,-99.9,-99.9,0,0,100,0.00,40.00,0,-999,0,0.00
2013-2-11,22.0,11.6,1.0,-99.9,-99.9,-99.9,0,0,100,0.00,40.00,0,-999,0,0.01
2013-2-12,25.0,15.1,8.0,-99.9,-99.9,-99.9,0,0,100,0.00,40.00,0,-999,0,0.01
2013-2-13,26.0,20.8,16.0,-99.9,-99.9,-99.9,0,0,100,0.00,40.00,0,-999,0,0.01
2013-2-14,30.0,21.2,12.0,-99.9,-99.9,-99.9,0,0,100,0.00,40.00,0,-999,0,0.01
2013-2-15,22.0,19.1,16.0,-99.9,-99.9,-99.9,0,0,100,0.00,40.00,0,-999,0,0.01
2013-2-16,34.0,27.0,21.0,-99.9,-99.9,-99.9,0,0,100,0.00,40.00,0,-999,0,0.01
2013-2-17,38.0,31.6,19.0,-99.9,-99.9,-99.9,0,0,100,0.00,40.00,0,-999,0,0.02
2013-2-18,21.0,17.7,14.0,-99.9,-99.9,-99.9,0,0,100,0.00,40.00,0,-999,0,0.01
2013-2-19,38.0,25.8,17.0,-99.9,-99.9,-99.9,0,0,100,0.00,40.00,0,-999,0,0.01
2013-2-20,36.0,25.1,17.0,-99.9,-99.9,-99.9,0,0,100,0.00,40.00,0,-999,0,0.00
2013-2-21,25.0,18.2,13.0,-99.9,-99.9,-99.9,0,0,100,0.00,40.00,0,-999,0,0.02
2013-2-22,24.0,18.1,14.0,-99.9,-99.9,-99.9,0,0,100,0.00,40.00,0,-999,0,0.01
2013-2-23,29.0,19.7,14.0,-99.9,-99.9,-99.9,0,0,100,0.00,40.00,0,-999,0,0.01
2013-2-24,20.0,16.9,9.0,-99.9,-99.9,-99.9,0,0,100,0.00,40.00,0,-999,0,0.01
2013-2-25,28.0,21.7,11.0,-99.9,-99.9,-99.9,0,0,100,0.00,40.00,0,-999,0,0.01
2013-2-26,25.0,20.5,15.0,-99.9,-99.9,-99.9,0,0,100,0.00,40.00,0,-999,0,0.01
2013-2-27,23.0,15.6,12.0,-99.9,-99.9,-99.9,0,0,100,0.00,40.00,0,-999,0,0.01
2013-2-28,26.0,18.7,12.0,-99.9,-99.9,-99.9,0,0,100,0.00,40.00,0,-999,0,0.00
2013-3-1,32.0,26.1,20.0,-99.9,-99.9,-99.9,0,0,100,0.00,40.00,0,-999,0,0.00
2013-3-2,41.0,34.0,29.0,-99.9,-99.9,-99.9,0,0,100,0.00,40.00,0,-999,0,0.01
2013-3-3,42.0,36.4,31.0,-99.9,-99.9,-99.9,0,0,100,0.00,40.00,0,-999,0,0.00
2013-3-4,31.0,23.6,13.0,-99.9,-99.9,-99.9,0,0,100,0.00,40.00,0,-999,0,0.03
2013-3-5,37.0,26.5,14.0,-99.9,-99.9,-99.9,0,0,100,0.00,40.00,0,-999,0,0.01
2013-3-6,46.0,38.4,33.0,-99.9,-99.9,-99.9,0,0,100,0.00,40.00,0,-999,0,0.00
2013-3-7,49.0,39.6,27.0,-99.9,-99.9,-99.9,0,0,100,0.00,40.00,0,-999,0,0.02
2013-3-8,47.0,35.0,27.0,-99.9,-99.9,-99.9,0,0,100,0.00,40.00,0,-999,0,0.01
2013-3-9,29.0,25.3,15.0,-99.9,-99.9,-99.9,0,0,100,0.00,40.00,0,-999,0,0.04
2013-3-10,37.0,25.5,11.0,-99.9,-99.9,-99.9,0,0,100,0.00,40.00,0,-999,0,0.02
2013-3-11,34.0,27.9,23.0,-99.9,-99.9,-99.9,0,0,100,0.00,40.00,0,-999,0,0.01
2013-3-12,35.0,28.8,21.0,-99.9,-99.9,-99.9,0,0,100,0.00,40.00,0,-999,0,0.02
2013-3-13,45.0,37.5,32.0,-99.9,-99.9,-99.9,0,0,100,0.00,40.00,0,-999,0,0.00
2013-3-14,50.0,42.2,37.0,-99.9,-99.9,-99.9,0,0,100,0.00,40.00,0,-999,0,0.01
2013-3-15,52.0,45.2,40.0,-99.9,-99.9,-99.9,0,0,100,0.00,40.00,0,-999,0,0.00
2013-3-16,40.0,35.4,30.0,-99.9,-99.9,-99.9,0,0,100,0.00,40.00,0,-999,0,0.02
2013-3-17,33.0,30.1,20.0,-99.9,-99.9,-99.9,0,0,100,0.00,40.00,0,-999,0,0.01
2013-3-18,27.0,21.5,15.0,-99.9,-99.9,-99.9,0,0,100,0.00,40.00,0,-999,0,0.03
2013-3-19,35.0,26.5,14.0,-99.9,-99.9,-99.9,0,0,100,0.00,40.00,0,-999,0,0.01
2013-3-20,43.0,33.8,16.0,-99.9,-99.9,-99.9,0,0,100,0.00,40.00,0,-999,0,0.01
2013-3-21,40.0,30.7,21.0,-99.9,-99.9,-99.9,0,0,100,0.00,40.00,0,-999,0,0.02
2013-3-22,33.0,25.3,19.0,-99.9,-99.9,-99.9,0,0,100,0.00,40.00,0,-999,0,0.01
2013-3-23,17.0,12.5,3.0,-99.9,-99.9,-99.9,0,0,100,0.00,40.00,0,-999,0,0.02
2013-3-24,16.0,9.9,3.0,-99.9,-99.9,-99.9,0,0,100,0.00,40.00,0,-999,0,0.01
2013-3-25,29.0,15.7,8.0,-99.9,-99.9,-99.9,0,0,100,0.00,40.00,0,-999,0,0.02
2013-3-26,40.0,29.1,20.0,-99.9,-99.9,-99.9,0,0,100,0.00,40.00,0,-999,0,0.01
2013-3-27,45.0,34.8,28.0,-99.9,-99.9,-99.9,0,0,100,0.00,40.00,0,-999,0,0.01
2013-3-28,46.0,35.8,29.0,-99.9,-99.9,-99.9,0,0,100,0.00,40.00,0,-999,0,0.01
2013-3-29,47.0,38.6,29.0,-99.9,-99.9,-99.9,0,0,100,0.00,40.00,0,-999,0,0.00
2013-3-30,45.0,38.4,30.0,-99.9,-99.9,-99.9,0,0,100,0.00,40.00,0,-999,0,0.01
2013-3-31,50.0,37.0,28.0,-99.9,-99.9,-99.9,0,0,100,0.00,40.00,0,-999,0,0.01
2013-4-1,45.0,34.5,23.0,-99.9,-99.9,-99.9,0,0,100,0.00,40.00,0,-999,0,0.01
2013-4-2,36.0,32.1,26.0,-99.9,-99.9,-99.9,0,0,100,0.00,40.00,0,-999,0,0.02
2013-4-3,46.0,35.1,21.0,-99.9,-99.9,-99.9,0,0,100,0.00,40.00,0,-999,0,0.01
2013-4-4,52.0,42.1,34.0,-99.9,-99.9,-99.9,0,0,100,0.00,40.00,0,-999,0,0.01
2013-4-5,52.0,43.5,33.0,-99.9,-99.9,-99.9,0,0,100,0.00,40.00,0,-999,0,0.01
2013-4-6,45.0,37.5,32.0,-99.9,-99.9,-99.9,0,0,100,0.00,40.00,0,-999,0,0.01
2013-4-7,42.0,35.5,31.0,-99.9,-99.9,-99.9,0,0,100,0.00,40.00,0,-999,0,0.02
2013-4-8,49.0,39.0,32.0,-99.9,-99.9,-99.9,0,0,100,0.00,40.00,0,-999,0,0.01
2013-4-9,28.0,16.6,4.0,-99.9,-99.9,-99.9,0,0,100,0.00,40.00,0,-999,0,0.01
2013-4-10,30.0,20.7,3.0,-99.9,-99.9,-99.9,0,0,100,0.00,40.00,0,-999,0,0.25
2013-4-11,41.0,31.5,21.0,-99.9,-99.9,-99.9,0,0,100,0.00,40.00,0,-999,0,0.03
2013-4-12,43.0,34.2,29.0,-99.9,-99.9,-99.9,0,0,100,0.00,40.00,0,-999,0,0.01
2013-4-13,47.0,38.1,31.0,-99.9,-99.9,-99.9,0,0,100,0.00,40.00,0,-999,0,0.01
2013-4-14,34.0,25.2,20.0,-99.9,-99.9,-99.9,0,0,100,0.00,40.00,0,-999,0,0.03
2013-4-15,27.0,22.6,19.0,-99.9,-99.9,-99.9,0,0,100,0.00,40.00,0,-999,0,0.01
2013-4-16,28.0,22.2,17.0,-99.9,-99.9,-99.9,0,0,100,0.00,40.00,0,-999,0,0.00
2013-4-17,29.0,19.0,7.0,-99.9,-99.9,-99.9,0,0,100,0.00,40.00,0,-999,0,0.03
2013-4-18,23.0,13.9,2.0,-99.9,-99.9,-99.9,0,0,100,0.00,40.00,0,-999,0,0.29
2013-4-19,34.0,25.6,17.0,-99.9,-99.9,-99.9,0,0,100,0.00,40.00,0,-999,0,0.01
2013-4-20,39.0,32.9,29.0,-99.9,-99.9,-99.9,0,0,100,0.00,40.00,0,-999,0,0.01
2013-4-21,43.0,34.9,30.0,-99.9,-99.9,-99.9,0,0,100,0.00,40.00,0,-999,0,0.04
2013-4-22,36.0,27.2,14.0,-99.9,-99.9,-99.9,0,0,100,0.00,40.00,0,-999,0,0.02
2013-4-23,31.0,19.3,11.0,-99.9,-99.9,-99.9,0,0,100,0.00,40.00,0,-999,0,0.01
2013-4-24,38.0,32.3,24.0,-99.9,-99.9,-99.9,0,0,100,0.00,40.00,0,-999,0,0.02
2013-4-25,49.0,37.8,23.0,-99.9,-99.9,-99.9,0,0,100,0.00,40.00,0,-999,0,0.01
2013-4-26,52.0,40.3,28.0,-99.9,-99.9,-99.9,0,0,100,0.00,40.00,0,-999,0,0.01
2013-4-27,55.0,42.7,27.0,-99.9,-99.9,-99.9,0,0,100,0.00,40.00,0,-999,0,0.00
2013-4-28,58.0,48.2,43.0,-99.9,-99.9,-99.9,0,0,100,0.00,40.00,0,-999,0,0.00
2013-4-29,59.0,49.3,41.0,-99.9,-99.9,-99.9,0,0,100,0.00,40.00,0,-999,0,0.02
2013-4-30,54.0,44.6,33.0,-99.9,-99.9,-99.9,0,0,100,0.00,40.00,0,-999,0,0.01
2013-5-1,32.0,24.1,12.0,-99.9,-99.9,-99.9,0,0,100,0.00,40.00,0,-999,0,0.05
2013-5-2,36.0,23.2,5.0,-99.9,-99.9,-99.9,0,0,100,0.00,40.00,0,-999,0,0.03
2013-5-3,47.0,38.0,27.0,-99.9,-99.9,-99.9,0,0,100,0.00,40.00,0,-999,0,0.01
2013-5-4,44.0,35.6,24.0,-99.9,-99.9,-99.9,0,0,100,0.00,40.00,0,-999,0,0.01
2013-5-5,50.0,36.5,24.0,-99.9,-99.9,-99.9,0,0,100,0.00,40.00,0,-999,0,0.00
2013-5-6,50.0,41.8,33.0,-99.9,-99.9,-99.9,0,0,100,0.00,40.00,0,-999,0,0.01
2013-5-7,53.0,41.0,36.0,-99.9,-99.9,-99.9,0,0,100,0.00,40.00,0,-999,0,0.00
2013-5-8,45.0,37.0,33.0,-99.9,-99.9,-99.9,0,0,100,0.00,40.00,0,-999,0,0.04
2013-5-9,41.0,35.9,31.0,-99.9,-99.9,-99.9,0,0,100,0.00,40.00,0,-999,0,0.05
2013-5-10,49.0,37.1,28.0,-99.9,-99.9,-99.9,0,0,100,0.00,40.00,0,-999,0,0.01
2013-5-11,54.0,42.1,33.0,-99.9,-99.9,-99.9,0,0,100,0.00,40.00,0,-999,0,0.00
2013-5-12,59.0,47.9,37.0,-99.9,-99.9,-99.9,0,0,100,0.00,40.00,0,-999,0,0.00
2013-5-13,65.0,52.9,42.0,-99.9,-99.9,-99.9,0,0,100,0.00,40.00,0,-999,0,0.00
2013-5-14,67.0,54.0,44.0,-99.9,-99.9,-99.9,0,0,100,0.00,40.00,0,-999,0,0.02
2013-5-15,61.0,50.0,41.0,-99.9,-99.9,-99.9,0,0,100,0.00,40.00,0,-999,0,0.01
2013-5-16,59.0,51.1,42.0,-99.9,-99.9,-99.9,0,0,100,0.00,40.00,0,-999,0,0.00
2013-5-17,65.0,51.7,38.0,-99.9,-99.9,-99.9,0,0,100,0.00,40.00,0,-999,0,0.01
2013-5-18,57.0,46.9,40.0,-99.9,-99.9,-99.9,0,0,100,0.00,40.00,0,-999,0,0.02
2013-5-19,50.0,41.3,38.0,-99.9,-99.9,-99.9,0,0,100,0.00,40.00,0,-999,0,0.01
2013-5-20,49.0,42.2,36.0,-99.9,-99.9,-99.9,0,0,100,0.00,40.00,0,-999,0,0.01
2013-5-21,52.0,44.0,35.0,-99.9,-99.9,-99.9,0,0,100,0.00,40.00,0,-999,0,0.00
2013-5-22,60.0,46.8,34.0,-99.9,-99.9,-99.9,0,0,100,0.00,40.00,0,-999,0,0.00
2013-5-23,49.0,44.5,40.0,-99.9,-99.9,-99.9,0,0,100,0.00,40.00,0,-999,0,0.02
2013-5-24,66.0,51.6,37.0,-99.9,-99.9,-99.9,0,0,100,0.00,40.00,0,-999,0,0.01
2013-5-25,66.0,53.0,38.0,-99.9,-99.9,-99.9,0,0,100,0.00,40.00,0,-999,0,0.01
2013-5-26,64.0,51.5,42.0,-99.9,-99.9,-99.9,0,0,100,0.00,40.00,0,-999,0,0.02
2013-5-27,63.0,51.9,41.0,-99.9,-99.9,-99.9,0,0,100,0.00,40.00,0,-999,0,0.00
2013-5-28,59.0,48.8,37.0,-99.9,-99.9,-99.9,0,0,100,0.00,40.00,0,-999,0,0.01
2013-5-29,49.0,40.9,36.0,-99.9,-99.9,-99.9,0,0,100,0.00,40.00,0,-999,0,0.01
2013-5-30,47.0,40.8,36.0,-99.9,-99.9,-99.9,0,0,100,0.00,40.00,0,-999,0,0.02
2013-5-31,51.0,43.0,35.0,-99.9,-99.9,-99.9,0,0,100,0.00,40.00,0,-999,0,0.03
2013-6-1,55.0,44.9,38.0,-99.9,-99.9,-99.9,0,0,100,0.00,40.00,0,-999,0,0.02
2013-6-2,68.0,53.2,33.0,-99.9,-99.9,-99.9,0,0,100,0.00,40.00,0,-999,0,0.02
2013-6-3,70.0,55.5,45.0,-99.9,-99.9,-99.9,0,0,100,0.00,40.00,0,-999,0,0.01
2013-6-4,65.0,51.4,36.0,-99.9,-99.9,-99.9,0,0,100,0.00,40.00,0,-999,0,0.01
2013-6-5,56.0,44.9,39.0,-99.9,-99.9,-99.9,0,0,100,0.00,40.00,0,-999,0,0.01
2013-6-6,62.0,50.0,39.0,-99.9,-99.9,-99.9,0,0,100,0.00,40.00,0,-999,0,0.01
2013-6-7,64.0,51.5,39.0,-99.9,-99.9,-99.9,0,0,100,0.00,40.00,0,-999,0,0.00
2013-6-8,65.0,57.4,44.0,-99.9,-99.9,-99.9,0,0,100,0.00,40.00,0,-999,0,0.01
2013-6-9,74.0,59.5,41.0,-99.9,-99.9,-99.9,0,0,100,0.00,40.00,0,-999,0,0.00
2013-6-10,77.0,65.0,53.0,-99.9,-99.9,-99.9,0,0,100,0.00,40.00,0,-999,0,0.00
2013-6-11,76.0,65.1,52.0,-99.9,-99.9,-99.9,0,0,100,0.00,40.00,0,-999,0,0.00
2013-6-12,77.0,63.0,49.0,-99.9,-99.9,-99.9,0,0,100,0.00,40.00,0,-999,0,0.00
2013-6-13,77.0,60.7,47.0,-99.9,-99.9,-99.9,0,0,100,0.00,40.00,0,-999,0,0.02
2013-6-14,74.0,60.7,49.0,-99.9,-99.9,-99.9,0,0,100,0.00,40.00,0,-999,0,0.01
2013-6-15,71.0,54.6,42.0,-99.9,-99.9,-99.9,0,0,100,0.00,40.00,0,-999,0,0.01
2013-6-16,65.0,53.9,45.0,-99.9,-99.9,-99.9,0,0,100,0.00,40.00,0,-999,0,0.02
2013-6-17,65.0,54.8,43.0,-99.9,-99.9,-99.9,0,0,100,0.00,40.00,0,-999,0,0.02
2013-6-18,69.0,55.5,42.0,-99.9,-99.9,-99.9,0,0,100,0.00,40.00,0,-999,0,0.00
2013-6-19,74.0,59.4,42.0,-99.9,-99.9,-99.9,0,0,100,0.00,40.00,0,-999,0,0.00
2013-6-20,70.0,56.6,48.0,-99.9,-99.9,-99.9,0,0,100,0.00,40.00,0,-999,0,0.01
2013-6-22,71.0,64.2,50.0,-99.9,-99.9,-99.9,0,0,100,0.00,40.00,0,-999,0,0.02
2013-6-23,67.0,55.8,41.0,-99.9,-99.9,-99.9,0,0,100,0.00,40.00,0,-999,0,0.00
2013-6-24,72.0,59.7,42.0,-99.9,-99.9,-99.9,0,0,100,0.00,40.00,0,-999,0,0.00
2013-6-25,70.0,60.1,54.0,-99.9,-99.9,-99.9,0,0,100,0.00,40.00,0,-999,0,0.02
2013-6-26,77.0,61.8,50.0,-99.9,-99.9,-99.9,0,0,100,0.00,40.00,0,-999,0,0.00
2013-6-27,82.0,65.2,52.0,-99.9,-99.9,-99.9,0,0,100,0.00,40.00,0,-999,0,0.01
2013-6-28,82.0,66.7,53.0,-99.9,-99.9,-99.9,0,0,100,0.00,40.00,0,-999,0,0.01
2013-6-29,74.0,57.5,50.0,-99.9,-99.9,-99.9,0,0,100,0.00,40.00,0,-999,0,0.03
2013-6-30,65.0,56.7,50.0,-99.9,-99.9,-99.9,0,0,100,0.00,40.00,0,-999,0,0.02
2013-7-1,63.0,52.0,43.0,-99.9,-99.9,-99.9,0,0,100,0.00,40.00,0,-999,0,0.01
2013-7-2,67.0,53.7,43.0,-99.9,-99.9,-99.9,0,0,100,0.00,40.00,0,-999,0,0.01
2013-7-3,73.0,57.6,43.0,-99.9,-99.9,-99.9,0,0,100,0.00,40.00,0,-999,0,0.02
2013-7-4,71.0,58.9,48.0,-99.9,-99.9,-99.9,0,0,100,0.00,40.00,0,-999,0,0.02
2013-7-5,67.0,57.3,48.0,-99.9,-99.9,-99.9,0,0,100,0.00,40.00,0,-999,0,0.01
2013-7-6,71.0,55.6,48.0,-99.9,-99.9,-99.9,0,0,100,0.00,40.00,0,-999,0,0.03
2013-7-7,72.0,59.8,48.0,-99.9,-99.9,-99.9,0,0,100,0.00,40.00,0,-999,0,0.01
2013-7-8,72.0,59.4,50.0,-99.9,-99.9,-99.9,0,0,100,0.00,40.00,0,-999,0,0.01
2013-7-9,77.0,62.2,54.0,-99.9,-99.9,-99.9,0,0,100,0.00,40.00,0,-999,0,0.00
2013-7-10,72.0,58.0,47.0,-99.9,-99.9,-99.9,0,0,100,0.00,40.00,0,-999,0,0.01
2013-7-11,81.0,63.6,50.0,-99.9,-99.9,-99.9,0,0,100,0.00,40.00,0,-999,0,0.00
2013-7-12,71.0,60.6,54.0,-99.9,-99.9,-99.9,0,0,100,0.00,40.00,0,-999,0,0.02
2013-7-13,71.0,61.7,52.0,-99.9,-99.9,-99.9,0,0,100,0.00,40.00,0,-999,0,0.01
2013-7-14,68.0,55.4,50.0,-99.9,-99.9,-99.9,0,0,100,0.00,40.00,0,-999,0,0.02
2013-7-15,62.0,54.3,50.0,-99.9,-99.9,-99.9,0,0,100,0.00,40.00,0,-999,0,0.01
2013-7-16,68.0,55.3,41.0,-99.9,-99.9,-99.9,0,0,100,0.00,40.00,0,-999,0,0.00
2013-7-17,75.0,59.1,46.0,-99.9,-99.9,-99.9,0,0,100,0.00,40.00,0,-999,0,0.00
2013-7-18,72.0,60.6,54.0,-99.9,-99.9,-99.9,0,0,100,0.00,40.00,0,-999,0,0.01
2013-7-19,69.0,58.6,49.0,-99.9,-99.9,-99.9,0,0,100,0.00,40.00,0,-999,0,0.01
2013-7-20,74.0,59.8,47.0,-99.9,-99.9,-99.9,0,0,100,0.00,40.00,0,-999,0,0.01
2013-7-21,78.0,63.6,49.0,-99.9,-99.9,-99.9,0,0,100,0.00,40.00,0,-999,0,0.01
2013-7-22,80.0,64.3,52.0,-99.9,-99.9,-99.9,0,0,100,0.00,40.00,0,-999,0,0.01
2013-7-23,81.0,64.8,53.0,-99.9,-99.9,-99.9,0,0,100,0.00,40.00,0,-999,0,0.01
2013-7-24,72.0,59.0,49.0,-99.9,-99.9,-99.9,0,0,100,0.00,40.00,0,-999,0,0.01
2013-7-25,63.0,53.6,47.0,-99.9,-99.9,-99.9,0,0,100,0.00,40.00,0,-999,0,0.03
2013-7-26,67.0,56.8,44.0,-99.9,-99.9,-99.9,0,0,100,0.00,40.00,0,-999,0,0.01
2013-7-27,72.0,58.6,48.0,-99.9,-99.9,-99.9,0,0,100,0.00,40.00,0,-999,0,0.00
2013-7-28,63.0,54.6,48.0,-99.9,-99.9,-99.9,0,0,100,0.00,40.00,0,-999,0,0.02
2013-7-29,64.0,54.4,48.0,-99.9,-99.9,-99.9,0,0,100,0.00,40.00,0,-999,0,0.01
2013-7-30,68.0,56.9,48.0,-99.9,-99.9,-99.9,0,0,100,0.00,40.00,0,-999,0,0.02
2013-7-31,74.0,61.5,48.0,-99.9,-99.9,-99.9,0,0,100,0.00,40.00,0,-999,0,0.00
2013-8-1,72.0,60.4,48.0,-99.9,-99.9,-99.9,0,0,100,0.00,40.00,0,-999,0,0.01
2013-8-2,75.0,63.8,55.0,-99.9,-99.9,-99.9,0,0,100,0.00,40.00,0,-999,0,0.02
2013-8-3,74.0,60.3,52.0,-99.9,-99.9,-99.9,0,0,100,0.00,40.00,0,-999,0,0.01
2013-8-4,73.0,63.1,52.0,-99.9,-99.9,-99.9,0,0,100,0.00,40.00,0,-999,0,0.01
2013-8-5,70.0,60.8,55.0,-99.9,-99.9,-99.9,0,0,100,0.00,40.00,0,-999,0,0.01
2013-8-6,69.0,60.2,55.0,-99.9,-99.9,-99.9,0,0,100,0.00,40.00,0,-999,0,0.01
2013-8-7,62.0,55.0,48.0,-99.9,-99.9,-99.9,0,0,100,0.00,40.00,0,-999,0,0.02
2013-8-8,64.0,51.6,45.0,-99.9,-99.9,-99.9,0,0,100,0.00,40.00,0,-999,0,0.02
2013-8-9,60.0,48.6,42.0,-99.9,-99.9,-99.9,0,0,100,0.00,40.00,0,-999,0,0.03
2013-8-10,68.0,55.3,43.0,-99.9,-99.9,-99.9,0,0,100,0.00,40.00,0,-999,0,0.01
2013-8-11,61.0,53.2,47.0,-99.9,-99.9,-99.9,0,0,100,0.00,40.00,0,-999,0,0.01
2013-8-25,67.0,56.1,46.0,-99.9,-99.9,-99.9,0,0,100,0.00,40.00,0,-999,0,0.02
2013-8-26,69.0,60.4,53.0,-99.9,-99.9,-99.9,0,0,100,0.00,40.00,0,-999,0,0.02
2013-8-27,65.0,55.5,49.0,-99.9,-99.9,-99.9,0,0,100,0.00,40.00,0,-999,0,0.02
2013-8-28,71.0,63.7,53.0,-99.9,-99.9,-99.9,0,0,100,0.00,40.00,0,-999,0,0.00
2013-8-29,69.0,56.3,50.0,-99.9,-99.9,-99.9,0,0,100,0.00,40.00,0,-999,0,0.00
2013-8-30,70.0,62.1,53.0,-99.9,-99.9,-99.9,0,0,100,0.00,40.00,0,-999,0,0.00
2013-8-31,68.0,55.3,47.0,-99.9,-99.9,-99.9,0,0,100,0.00,40.00,0,-999,0,0.05
2013-9-1,59.0,51.6,44.0,-99.9,-99.9,-99.9,0,0,100,0.00,40.00,0,-999,0,0.01
2013-9-2,72.0,59.3,48.0,-99.9,-99.9,-99.9,0,0,100,0.00,40.00,0,-999,0,0.01
2013-9-3,74.0,60.5,51.0,-99.9,-99.9,-99.9,0,0,100,0.00,40.00,0,-999,0,0.00
2013-9-4,70.0,59.3,52.0,-99.9,-99.9,-99.9,0,0,100,0.00,40.00,0,-999,0,0.01
2013-9-5,67.0,58.0,49.0,-99.9,-99.9,-99.9,0,0,100,0.00,40.00,0,-999,0,0.01
2013-9-6,68.0,58.6,51.0,-99.9,-99.9,-99.9,0,0,100,0.00,40.00,0,-999,0,0.01
2013-9-12,52.0,49.5,48.0,-99.9,-99.9,-99.9,0,0,100,0.00,40.00,0,-999,0,0.14
2013-9-13,59.0,51.0,44.0,-99.9,-99.9,-99.9,0,0,100,0.00,40.00,0,-999,0,0.01
2013-9-14,58.0,49.5,44.0,-99.9,-99.9,-99.9,0,0,100,0.00,40.00,0,-999,0,0.01
2013-9-15,48.0,46.1,43.0,-99.9,-99.9,-99.9,0,0,100,0.00,40.00,0,-999,0,0.02
2013-9-16,57.0,47.5,39.0,-99.9,-99.9,-99.9,0,0,100,0.00,40.00,0,-999,0,0.01
2013-9-17,62.0,51.1,45.0,-99.9,-99.9,-99.9,0,0,100,0.00,40.00,0,-999,0,0.00
2013-9-18,51.0,46.7,44.0,-99.9,-99.9,-99.9,0,0,100,0.00,40.00,0,-999,0,0.01
2013-9-19,53.0,42.0,35.0,-99.9,-99.9,-99.9,0,0,100,0.00,40.00,0,-999,0,0.01
2013-9-20,62.0,45.5,33.0,-99.9,-99.9,-99.9,0,0,100,0.00,40.00,0,-999,0,0.00
2013-9-21,63.0,55.3,42.0,-99.9,-99.9,-99.9,0,0,100,0.00,40.00,0,-999,0,0.01
2013-9-22,54.0,47.9,40.0,-99.9,-99.9,-99.9,0,0,100,0.00,40.00,0,-999,0,0.02
2013-9-23,43.0,39.2,37.0,-99.9,-99.9,-99.9,0,0,100,0.00,40.00,0,-999,0,0.01
2013-9-24,57.0,48.0,40.0,-99.9,-99.9,-99.9,0,0,100,0.00,40.00,0,-999,0,0.00
2013-9-25,64.0,54.3,47.0,-99.9,-99.9,-99.9,0,0,100,0.00,40.00,0,-999,0,0.00
2013-9-26,55.0,47.3,38.0,-99.9,-99.9,-99.9,0,0,100,0.00,40.00,0,-999,0,0.00
2013-9-27,43.0,35.2,28.0,-99.9,-99.9,-99.9,0,0,100,0.00,40.00,0,-999,0,0.00
2013-10-2,60.0,51.1,38.0,-99.9,-99.9,-99.9,0,0,100,0.00,40.00,0,-999,0,0.00
2013-10-3,56.0,48.9,42.0,-99.9,-99.9,-99.9,0,0,100,0.00,40.00,0,-999,0,0.00
2013-10-4,30.0,28.2,22.0,-99.9,-99.9,-99.9,0,0,100,0.00,40.00,0,-999,0,0.01
2013-10-5,34.0,30.1,22.0,-99.9,-99.9,-99.9,0,0,100,0.00,40.00,0,-999,0,0.00
2013-10-6,47.0,40.4,32.0,-99.9,-99.9,-99.9,0,0,100,0.00,40.00,0,-999,0,0.01
2013-10-7,57.0,49.9,42.0,-99.9,-99.9,-99.9,0,0,100,0.00,40.00,0,-999,0,0.00
2013-10-8,57.0,49.7,47.0,-99.9,-99.9,-99.9,0,0,100,0.00,40.00,0,-999,0,0.00
2013-10-9,52.0,43.8,35.0,-99.9,-99.9,-99.9,0,0,100,0.00,40.00,0,-999,0,0.00
2013-10-10,45.0,39.8,35.0,-99.9,-99.9,-99.9,0,0,100,0.00,40.00,0,-999,0,0.00
2013-10-11,38.0,34.6,32.0,-99.9,-99.9,-99.9,0,0,100,0.00,40.00,0,-999,0,0.01
2013-10-12,42.0,35.2,31.0,-99.9,-99.9,-99.9,0,0,100,0.00,40.00,0,-999,0,0.00
2013-10-13,45.0,41.6,32.0,-99.9,-99.9,-99.9,0,0,100,0.00,40.00,0,-999,0,0.00
2013-11-12,45.0,37.9,25.0,-99.9,-99.9,-99.9,0,0,100,0.00,40.00,0,-999,0,0.00
2013-11-13,42.0,42.0,42.0,-99.9,-99.9,-99.9,0,0,100,0.00,40.00,0,-999,0,0.00
2013-11-14,37.0,35.0,34.0,-99.9,-99.9,-99.9,0,0,100,0.00,40.00,0,-999,0,0.00
2013-11-15,39.0,36.5,34.0,-99.9,-99.9,-99.9,0,0,100,0.00,40.00,0,-999,0,0.00
2013-11-16,27.0,26.0,25.0,-99.9,-99.9,-99.9,0,0,100,0.00,40.00,0,-999,0,0.00
2013-11-17,27.0,27.0,27.0,-99.9,-99.9,-99.9,0,0,100,0.00,40.00,0,-999,0,0.00
2013-11-18,31.0,29.0,28.0,-99.9,-99.9,-99.9,0,0,100,0.00,40.00,0,-999,0,0.00
2013-11-19,39.0,35.5,33.0,-99.9,-99.9,-99.9,0,0,100,0.00,40.00,0,-999,0,0.01
2013-11-20,34.0,32.9,31.0,-99.9,-99.9,-99.9,0,0,100,0.00,40.00,0,-999,0,0.00
2013-11-21,29.0,10.5,4.0,-99.9,-99.9,-99.9,0,0,100,0.00,40.00,0,-999,0,0.00
2013-11-22,26.0,18.8,13.0,-99.9,-99.9,-99.9,0,0,100,0.00,40.00,0,-999,0,0.04
2013-11-23,27.0,21.5,16.0,-99.9,-99.9,-99.9,0,0,100,0.00,40.00,0,-999,0,0.01
2013-11-24,38.0,31.1,23.0,-99.9,-99.9,-99.9,0,0,100,0.00,40.00,0,-999,0,0.01
2013-11-25,29.0,25.0,20.0,-99.9,-99.9,-99.9,0,0,100,0.00,40.00,0,-999,0,0.00
2013-11-26,31.0,28.2,25.0,-99.9,-99.9,-99.9,0,0,100,0.00,40.00,0,-999,0,0.00
2013-11-27,38.0,32.7,26.0,-99.9,-99.9,-99.9,0,0,100,0.00,40.00,0,-999,0,0.00
2013-11-28,42.0,32.9,25.0,-99.9,-99.9,-99.9,0,0,100,0.00,40.00,0,-999,0,0.00
2013-11-29,37.0,34.4,31.0,-99.9,-99.9,-99.9,0,0,100,0.00,40.00,0,-999,0,0.00
2013-11-30,31.0,30.6,30.0,-99.9,-99.9,-99.9,0,0,100,0.00,40.00,0,-999,0,0.00
2013-12-1,32.0,29.0,28.0,-99.9,-99.9,-99.9,0,0,100,0.00,40.00,0,-999,0,0.00
2013-12-2,31.0,30.5,30.0,-99.9,-99.9,-99.9,0,0,100,0.00,40.00,0,-999,0,0.00
2013-12-3,30.0,22.0,8.0,-99.9,-99.9,-99.9,0,0,100,0.00,40.00,0,-999,0,0.00
2013-12-4,2.0,0.0,-2.0,-99.9,-99.9,-99.9,0,0,100,0.00,40.00,0,-999,0,0.00
2013-12-11,24.0,21.1,17.0,-99.9,-99.9,-99.9,0,0,100,0.00,40.00,0,-999,0,0.00
2013-12-12,30.0,29.0,28.0,-99.9,-99.9,-99.9,0,0,100,0.00,40.00,0,-999,0,0.00
2013-12-13,31.0,29.6,28.0,-99.9,-99.9,-99.9,0,0,100,0.00,40.00,0,-999,0,0.00
2013-12-14,22.0,20.5,19.0,-99.9,-99.9,-99.9,0,0,100,0.00,40.00,0,-999,0,0.00
2013-12-15,31.0,29.0,27.0,-99.9,-99.9,-99.9,0,0,100,0.00,40.00,0,-999,0,0.00
2013-12-16,36.0,33.5,31.0,-99.9,-99.9,-99.9,0,0,100,0.00,40.00,0,-999,0,0.00
2013-12-17,33.0,32.3,32.0,-99.9,-99.9,-99.9,0,0,100,0.00,40.00,0,-999,0,0.00
2013-12-22,18.0,15.5,13.0,-99.9,-99.9,-99.9,0,0,100,0.00,40.00,0,-999,0,0.00
2013-12-23,20.0,19.0,18.0,-99.9,-99.9,-99.9,0,0,100,0.00,40.00,0,-999,0,0.00
2013-12-24,27.0,24.1,14.0,-99.9,-99.9,-99.9,0,0,100,0.00,40.00,0,-999,0,0.04
2013-12-25,21.0,18.0,15.0,-99.9,-99.9,-99.9,0,0,100,0.00,40.00,0,-999,0,0.00
2013-12-26,30.0,26.8,23.0,-99.9,-99.9,-99.9,0,0,100,0.00,40.00,0,-999,0,0.00
2013-12-27,32.0,32.0,32.0,-99.9,-99.9,-99.9,0,0,100,0.00,40.00,0,-999,0,0.00
2013-12-28,28.0,28.0,28.0,-99.9,-99.9,-99.9,0,0,100,0.00,40.00,0,-999,0,0.00
2013-12-29,16.0,15.0,14.0,-99.9,-99.9,-99.9,0,0,100,0.00,40.00,0,-999,0,0.00
2013-12-30,23.0,21.7,20.0,-99.9,-99.9,-99.9,0,0,100,0.00,40.00,0,-999,0,0.00
2013-12-31,29.0,27.2,25.0,-99.9,-99.9,-99.9,0,0,100,0.00,40.00,0,-999,0,0.02
2014-1-1,26.0,23.3,18.0,-99.9,-99.9,-99.9,0,0,100,0.00,40.00,0,-999,0,0.01
2014-1-2,31.0,23.5,19.0,-99.9,-99.9,-99.9,0,0,100,0.00,40.00,0,-999,0,0.00